Time,TemperatureF,DewpointF,PressureIn,WindDirection,WindDirectionDegrees,WindSpeedMPH,WindSpeedGustMPH,Humidity,HourlyPrecipIn,Conditions,Clouds,dailyrainin,SolarRadiationWatts/m^2,SoftwareType,DateUTC
2013-05-14 00:05:00,42.0,38.4,30.20,NNE,12,0.0,2.0,87,0.00,,,0.00,0,Wunderground v.1.15,2013-05-14 07:05:00,
2013-05-14 00:11:00,42.7,39.1,30.20,NNE,12,2.0,2.0,87,0.00,,,0.00,0,Wunderground v.1.15,2013-05-14 07:11:00,
2013-05-14 00:17:00,42.8,39.2,30.20,WNW,296,4.0,4.0,87,0.00,,,0.00,0,Wunderground v.1.15,2013-05-14 07:17:00,
2013-05-14 00:22:00,42.4,38.8,30.20,WNW,296,2.0,2.0,87,0.00,,,0.00,0,Wunderground v.1.15,2013-05-14 07:22:00,
2013-05-14 00:28:00,41.3,38.0,30.20,WNW,296,0.0,2.0,88,0.00,,,0.00,0,Wunderground v.1.15,2013-05-14 07:28:00,
2013-05-14 00:34:00,40.4,37.1,30.20,WNW,296,1.0,1.0,88,0.00,,,0.00,0,Wunderground v.1.15,2013-05-14 07:34:00,
2013-05-14 00:40:00,40.8,37.2,30.21,WNW,296,0.0,1.0,87,0.00,,,0.00,0,Wunderground v.1.15,2013-05-14 07:40:00,
2013-05-14 00:45:00,41.0,37.4,30.21,WNW,296,0.0,1.0,87,0.00,,,0.00,0,Wunderground v.1.15,2013-05-14 07:45:00,
2013-05-14 00:51:00,40.6,37.3,30.21,WNW,296,0.0,0.0,88,0.00,,,0.00,0,Wunderground v.1.15,2013-05-14 07:51:00,
2013-05-14 00:57:00,40.1,36.8,30.21,WNW,296,0.0,0.0,88,0.00,,,0.00,0,Wunderground v.1.15,2013-05-14 07:57:00,
2013-05-14 01:03:00,40.3,37.0,30.21,WNW,296,0.0,0.0,88,0.00,,,0.00,0,Wunderground v.1.15,2013-05-14 08:03:00,
2013-05-14 01:09:00,40.4,37.1,30.21,WNW,296,0.0,0.0,88,0.00,,,0.00,0,Wunderground v.1.15,2013-05-14 08:09:00,
2013-05-14 01:15:00,40.6,37.0,30.21,WNW,296,0.0,0.0,87,0.00,,,0.00,0,Wunderground v.1.15,2013-05-14 08:15:00,
2013-05-14 01:21:00,40.2,36.6,30.20,WNW,296,4.0,4.0,87,0.00,,,0.00,0,Wunderground v.1.15,2013-05-14 08:21:00,
2013-05-14 01:27:00,40.6,36.7,30.20,WNW,296,1.0,4.0,86,0.00,,,0.00,0,Wunderground v.1.15,2013-05-14 08:27:00,
2013-05-14 01:32:00,40.6,37.0,30.21,WNW,296,1.0,2.0,87,0.00,,,0.00,0,Wunderground v.1.15,2013-05-14 08:32:00,
2013-05-14 01:38:00,40.6,37.0,30.20,WNW,296,2.0,2.0,87,0.00,,,0.00,0,Wunderground v.1.15,2013-05-14 08:38:00,
2013-05-14 01:44:00,40.5,36.6,30.20,WNW,296,0.0,2.0,86,0.00,,,0.00,0,Wunderground v.1.15,2013-05-14 08:44:00,
2013-05-14 01:50:00,41.2,37.0,30.20,WNW,296,0.0,1.0,85,0.00,,,0.00,0,Wunderground v.1.15,2013-05-14 08:50:00,
2013-05-14 01:55:00,41.6,37.4,30.20,WNW,296,1.0,1.0,85,0.00,,,0.00,0,Wunderground v.1.15,2013-05-14 08:55:00,
2013-05-14 02:00:00,41.9,38.0,30.20,WNW,296,0.0,1.0,86,0.00,,,0.00,0,Wunderground v.1.15,2013-05-14 09:00:00,
2013-05-14 02:05:00,42.0,38.1,30.20,WNW,296,0.0,1.0,86,0.00,,,0.00,0,Wunderground v.1.15,2013-05-14 09:05:00,
2013-05-14 02:10:00,41.9,38.0,30.21,WNW,296,0.0,0.0,86,0.00,,,0.00,0,Wunderground v.1.15,2013-05-14 09:10:00,
2013-05-14 02:15:00,41.5,37.9,30.21,WNW,296,0.0,0.0,87,0.00,,,0.00,0,Wunderground v.1.15,2013-05-14 09:15:00,
2013-05-14 02:20:00,41.3,37.7,30.21,WNW,296,0.0,0.0,87,0.00,,,0.00,0,Wunderground v.1.15,2013-05-14 09:20:00,
2013-05-14 02:25:00,41.0,37.4,30.20,WNW,296,0.0,0.0,87,0.00,,,0.00,0,Wunderground v.1.15,2013-05-14 09:25:00,
2013-05-14 02:30:00,40.4,37.1,30.21,WNW,296,0.0,0.0,88,0.00,,,0.00,0,Wunderground v.1.15,2013-05-14 09:30:00,
2013-05-14 02:35:00,40.2,36.6,30.21,WNW,296,0.0,0.0,87,0.00,,,0.00,0,Wunderground v.1.15,2013-05-14 09:35:00,
2013-05-14 02:40:00,40.2,36.6,30.21,WNW,296,0.0,1.0,87,0.00,,,0.00,0,Wunderground v.1.15,2013-05-14 09:40:00,
2013-05-14 02:45:00,40.0,36.4,30.21,WNW,296,0.0,1.0,87,0.00,,,0.00,0,Wunderground v.1.15,2013-05-14 09:45:00,
2013-05-14 02:50:00,39.9,36.3,30.21,WNW,296,0.0,0.0,87,0.00,,,0.00,0,Wunderground v.1.15,2013-05-14 09:50:00,
2013-05-14 02:55:00,39.5,37.4,30.21,WNW,296,0.0,0.0,92,0.00,,,0.00,0,Wunderground v.1.15,2013-05-14 09:55:00,
2013-05-14 03:00:00,39.3,35.8,30.21,WNW,296,0.0,0.0,87,0.00,,,0.00,0,Wunderground v.1.15,2013-05-14 10:00:00,
2013-05-14 03:05:00,39.5,35.7,30.21,WNW,296,0.0,0.0,86,0.00,,,0.00,0,Wunderground v.1.15,2013-05-14 10:05:00,
2013-05-14 03:10:00,39.7,35.9,30.20,WNW,296,1.0,1.0,86,0.00,,,0.00,0,Wunderground v.1.15,2013-05-14 10:10:00,
2013-05-14 03:15:00,39.4,35.9,30.20,WNW,296,0.0,1.0,87,0.00,,,0.00,0,Wunderground v.1.15,2013-05-14 10:15:00,
2013-05-14 03:20:00,39.5,35.7,30.21,WNW,296,0.0,0.0,86,0.00,,,0.00,0,Wunderground v.1.15,2013-05-14 10:20:00,
2013-05-14 03:25:00,40.0,35.9,30.21,WNW,296,2.0,2.0,85,0.00,,,0.00,0,Wunderground v.1.15,2013-05-14 10:25:00,
2013-05-14 03:30:00,40.2,36.3,30.20,WNW,296,0.0,1.0,86,0.00,,,0.00,0,Wunderground v.1.15,2013-05-14 10:30:00,
2013-05-14 03:35:00,40.1,36.2,30.20,WNW,296,0.0,1.0,86,0.00,,,0.00,0,Wunderground v.1.15,2013-05-14 10:35:00,
2013-05-14 03:40:00,40.0,36.2,30.20,WNW,296,4.0,4.0,86,0.00,,,0.00,0,Wunderground v.1.15,2013-05-14 10:40:00,
2013-05-14 03:45:00,39.8,36.0,30.20,WNW,296,4.0,5.0,86,0.00,,,0.00,0,Wunderground v.1.15,2013-05-14 10:45:00,
2013-05-14 03:50:00,39.8,36.0,30.20,NNE,27,3.0,4.0,86,0.00,,,0.00,0,Wunderground v.1.15,2013-05-14 10:50:00,
2013-05-14 03:55:00,40.0,36.2,30.21,NNE,27,3.0,4.0,86,0.00,,,0.00,0,Wunderground v.1.15,2013-05-14 10:55:00,
2013-05-14 04:00:00,40.3,36.1,30.21,NNE,27,2.0,3.0,85,0.00,,,0.00,0,Wunderground v.1.15,2013-05-14 11:00:00,
2013-05-14 04:05:00,40.7,36.5,30.20,NNE,27,2.0,3.0,85,0.00,,,0.00,0,Wunderground v.1.15,2013-05-14 11:05:00,
2013-05-14 04:10:00,40.7,36.5,30.20,NNE,27,2.0,3.0,85,0.00,,,0.00,0,Wunderground v.1.15,2013-05-14 11:10:00,
2013-05-14 04:15:00,40.7,36.8,30.20,NNE,27,3.0,4.0,86,0.00,,,0.00,0,Wunderground v.1.15,2013-05-14 11:15:00,
2013-05-14 04:20:00,40.6,36.7,30.20,NNE,27,3.0,3.0,86,0.00,,,0.00,0,Wunderground v.1.15,2013-05-14 11:20:00,
2013-05-14 04:25:00,40.6,36.4,30.20,NNE,27,3.0,3.0,85,0.00,,,0.00,0,Wunderground v.1.15,2013-05-14 11:25:00,
2013-05-14 04:30:00,40.7,36.5,30.20,NNE,27,1.0,3.0,85,0.00,,,0.00,0,Wunderground v.1.15,2013-05-14 11:30:00,
2013-05-14 04:35:00,40.9,36.7,30.21,NNE,27,2.0,3.0,85,0.00,,,0.00,0,Wunderground v.1.15,2013-05-14 11:35:00,
2013-05-14 04:40:00,41.3,37.1,30.21,NNE,27,1.0,3.0,85,0.00,,,0.00,0,Wunderground v.1.15,2013-05-14 11:40:00,
2013-05-14 04:45:00,41.4,37.2,30.21,NNE,27,2.0,3.0,85,0.00,,,0.00,0,Wunderground v.1.15,2013-05-14 11:45:00,
2013-05-14 04:50:00,41.3,37.4,30.21,NNE,27,2.0,2.0,86,0.00,,,0.00,0,Wunderground v.1.15,2013-05-14 11:50:00,
2013-05-14 04:55:00,41.0,37.1,30.21,NNE,27,1.0,3.0,86,0.00,,,0.00,0,Wunderground v.1.15,2013-05-14 11:55:00,
2013-05-14 05:00:00,41.1,37.2,30.21,NNE,27,1.0,2.0,86,0.00,,,0.00,0,Wunderground v.1.15,2013-05-14 12:00:00,
2013-05-14 05:05:00,41.2,37.3,30.21,NNE,27,1.0,3.0,86,0.00,,,0.00,0,Wunderground v.1.15,2013-05-14 12:05:00,
2013-05-14 05:10:00,41.4,37.5,30.21,NNE,27,0.0,2.0,86,0.00,,,0.00,0,Wunderground v.1.15,2013-05-14 12:10:00,
2013-05-14 05:15:00,41.5,37.6,30.21,NNE,27,0.0,2.0,86,0.00,,,0.00,0,Wunderground v.1.15,2013-05-14 12:15:00,
2013-05-14 05:20:00,41.5,37.6,30.21,NNE,27,0.0,1.0,86,0.00,,,0.00,0,Wunderground v.1.15,2013-05-14 12:20:00,
2013-05-14 05:25:00,41.5,37.6,30.21,NNE,27,0.0,1.0,86,0.00,,,0.00,0,Wunderground v.1.15,2013-05-14 12:25:00,
2013-05-14 05:30:00,41.5,37.6,30.21,NNE,27,0.0,0.0,86,0.00,,,0.00,0,Wunderground v.1.15,2013-05-14 12:30:00,
2013-05-14 05:35:00,41.6,37.7,30.21,NNE,27,0.0,0.0,86,0.00,,,0.00,0,Wunderground v.1.15,2013-05-14 12:35:00,
2013-05-14 05:40:00,41.8,37.9,30.21,NNE,27,0.0,0.0,86,0.00,,,0.00,0,Wunderground v.1.15,2013-05-14 12:40:00,
2013-05-14 05:45:00,41.8,37.9,30.20,NNE,27,0.0,0.0,86,0.00,,,0.00,0,Wunderground v.1.15,2013-05-14 12:45:00,
2013-05-14 05:50:00,41.6,37.7,30.20,NNE,27,0.0,0.0,86,0.00,,,0.00,7,Wunderground v.1.15,2013-05-14 12:50:00,
2013-05-14 05:55:00,41.5,37.6,30.20,NNE,27,1.0,3.0,86,0.00,,,0.00,11,Wunderground v.1.15,2013-05-14 12:55:00,
2013-05-14 06:00:00,41.6,37.7,30.20,NNE,27,1.0,1.0,86,0.00,,,0.00,14,Wunderground v.1.15,2013-05-14 13:00:00,
2013-05-14 06:05:00,41.7,37.8,30.20,NNE,27,0.0,1.0,86,0.00,,,0.00,18,Wunderground v.1.15,2013-05-14 13:05:00,
2013-05-14 06:10:00,41.9,37.7,30.20,NNE,27,0.0,0.0,85,0.00,,,0.00,21,Wunderground v.1.15,2013-05-14 13:10:00,
2013-05-14 06:15:00,42.1,37.9,30.20,NNE,27,0.0,1.0,85,0.00,,,0.00,25,Wunderground v.1.15,2013-05-14 13:15:00,
2013-05-14 06:20:00,42.2,38.0,30.20,NNE,27,0.0,0.0,85,0.00,,,0.00,28,Wunderground v.1.15,2013-05-14 13:20:00,
2013-05-14 06:26:00,42.5,38.3,30.20,NNE,27,1.0,2.0,85,0.00,,,0.00,32,Wunderground v.1.15,2013-05-14 13:26:00,
2013-05-14 06:31:00,42.5,38.3,30.20,NNE,27,0.0,0.0,85,0.00,,,0.00,39,Wunderground v.1.15,2013-05-14 13:31:00,
2013-05-14 06:36:00,42.5,38.6,30.21,NNE,27,1.0,1.0,86,0.00,,,0.00,46,Wunderground v.1.15,2013-05-14 13:36:00,
2013-05-14 06:41:00,42.7,38.8,30.21,NNE,27,1.0,2.0,86,0.00,,,0.00,53,Wunderground v.1.15,2013-05-14 13:41:00,
2013-05-14 06:46:00,42.7,38.8,30.21,NNE,27,0.0,2.0,86,0.00,,,0.00,56,Wunderground v.1.15,2013-05-14 13:46:00,
2013-05-14 06:51:00,42.9,39.0,30.21,NNE,27,0.0,0.0,86,0.00,,,0.00,58,Wunderground v.1.15,2013-05-14 13:51:00,
2013-05-14 06:56:00,43.1,39.2,30.21,NNE,27,0.0,0.0,86,0.00,,,0.00,67,Wunderground v.1.15,2013-05-14 13:56:00,
2013-05-14 07:01:00,43.3,39.4,30.21,NNE,27,0.0,0.0,86,0.00,,,0.00,84,Wunderground v.1.15,2013-05-14 14:01:00,
2013-05-14 07:06:00,43.5,39.6,30.21,NNE,27,0.0,0.0,86,0.00,,,0.00,107,Wunderground v.1.15,2013-05-14 14:06:00,
2013-05-14 07:11:00,43.8,39.9,30.21,NNE,27,0.0,1.0,86,0.00,,,0.00,132,Wunderground v.1.15,2013-05-14 14:11:00,
2013-05-14 07:16:00,44.1,40.2,30.21,NNE,27,0.0,1.0,86,0.00,,,0.00,132,Wunderground v.1.15,2013-05-14 14:16:00,
2013-05-14 07:21:00,44.3,40.7,30.21,NNE,23,0.0,0.0,87,0.00,,,0.00,105,Wunderground v.1.15,2013-05-14 14:21:00,
2013-05-14 07:26:00,44.6,41.0,30.21,NNE,23,1.0,2.0,87,0.00,,,0.00,105,Wunderground v.1.15,2013-05-14 14:26:00,
2013-05-14 07:31:00,44.8,41.2,30.21,NNE,30,0.0,1.0,87,0.00,,,0.00,113,Wunderground v.1.15,2013-05-14 14:31:00,
2013-05-14 07:36:00,45.1,41.5,30.21,ENE,57,0.0,1.0,87,0.00,,,0.00,134,Wunderground v.1.15,2013-05-14 14:36:00,
2013-05-14 07:41:00,45.3,41.7,30.21,ENE,62,0.0,0.0,87,0.00,,,0.00,158,Wunderground v.1.15,2013-05-14 14:41:00,
2013-05-14 07:46:00,45.7,42.1,30.21,NNE,24,0.0,1.0,87,0.00,,,0.00,167,Wunderground v.1.15,2013-05-14 14:46:00,
2013-05-14 07:51:00,46.0,42.6,30.21,NNW,331,0.0,1.0,88,0.00,,,0.00,153,Wunderground v.1.15,2013-05-14 14:51:00,
2013-05-14 07:56:00,46.3,43.2,30.21,NNW,347,0.0,1.0,89,0.00,,,0.00,144,Wunderground v.1.15,2013-05-14 14:56:00,
2013-05-14 08:01:00,46.4,43.3,30.21,ENE,78,1.0,1.0,89,0.00,,,0.00,213,Wunderground v.1.15,2013-05-14 15:01:00,
2013-05-14 08:06:00,46.9,43.5,30.21,NNE,32,0.0,1.0,88,0.00,,,0.00,207,Wunderground v.1.15,2013-05-14 15:06:00,
2013-05-14 08:11:00,47.7,44.3,30.21,NNE,32,0.0,0.0,88,0.00,,,0.00,315,Wunderground v.1.15,2013-05-14 15:11:00,
2013-05-14 08:16:00,47.9,44.5,30.21,North,10,0.0,2.0,88,0.00,,,0.00,329,Wunderground v.1.15,2013-05-14 15:16:00,
2013-05-14 08:21:00,48.1,44.7,30.21,North,10,0.0,2.0,88,0.00,,,0.00,345,Wunderground v.1.15,2013-05-14 15:21:00,
2013-05-14 08:26:00,48.5,44.8,30.21,North,10,1.0,2.0,87,0.00,,,0.00,366,Wunderground v.1.15,2013-05-14 15:26:00,
2013-05-14 08:31:00,48.5,44.2,30.21,North,10,0.0,2.0,85,0.00,,,0.00,237,Wunderground v.1.15,2013-05-14 15:31:00,
2013-05-14 08:36:00,48.5,44.2,30.21,North,10,0.0,2.0,85,0.00,,,0.00,267,Wunderground v.1.15,2013-05-14 15:36:00,
2013-05-14 08:41:00,48.8,44.2,30.21,North,10,0.0,0.0,84,0.00,,,0.00,315,Wunderground v.1.15,2013-05-14 15:41:00,
2013-05-14 08:46:00,49.3,45.0,30.21,West,259,1.0,3.0,85,0.00,,,0.00,276,Wunderground v.1.15,2013-05-14 15:46:00,
2013-05-14 08:51:00,49.4,44.8,30.21,West,259,0.0,3.0,84,0.00,,,0.00,271,Wunderground v.1.15,2013-05-14 15:51:00,
2013-05-14 08:56:00,49.4,44.5,30.21,West,259,0.0,3.0,83,0.00,,,0.00,299,Wunderground v.1.15,2013-05-14 15:56:00,
2013-05-14 09:01:00,49.4,44.5,30.21,West,259,0.0,1.0,83,0.00,,,0.00,336,Wunderground v.1.15,2013-05-14 16:01:00,
2013-05-14 09:06:00,49.7,44.4,30.22,West,259,0.0,2.0,82,0.00,,,0.00,359,Wunderground v.1.15,2013-05-14 16:06:00,
2013-05-14 09:11:00,50.6,45.3,30.21,West,259,0.0,0.0,82,0.00,,,0.00,288,Wunderground v.1.15,2013-05-14 16:11:00,
2013-05-14 09:16:00,51.3,45.7,30.21,West,259,0.0,1.0,81,0.00,,,0.00,404,Wunderground v.1.15,2013-05-14 16:16:00,
2013-05-14 09:21:00,51.9,46.3,30.21,West,259,1.0,3.0,81,0.00,,,0.00,508,Wunderground v.1.15,2013-05-14 16:21:00,
2013-05-14 09:26:00,52.1,45.4,30.21,West,259,0.0,3.0,78,0.00,,,0.00,510,Wunderground v.1.15,2013-05-14 16:26:00,
2013-05-14 09:31:00,52.4,44.4,30.20,West,259,1.0,3.0,74,0.00,,,0.00,510,Wunderground v.1.15,2013-05-14 16:31:00,
2013-05-14 09:36:00,52.3,45.0,30.20,West,259,0.0,3.0,76,0.00,,,0.00,545,Wunderground v.1.15,2013-05-14 16:36:00,
2013-05-14 09:41:00,52.9,45.5,30.20,West,259,1.0,2.0,76,0.00,,,0.00,559,Wunderground v.1.15,2013-05-14 16:41:00,
2013-05-14 09:46:00,53.3,45.6,30.20,West,259,1.0,3.0,75,0.00,,,0.00,596,Wunderground v.1.15,2013-05-14 16:46:00,
2013-05-14 09:51:00,53.5,45.8,30.20,West,259,0.0,3.0,75,0.00,,,0.00,652,Wunderground v.1.15,2013-05-14 16:51:00,
2013-05-14 09:56:00,53.7,46.3,30.20,West,259,0.0,3.0,76,0.00,,,0.00,622,Wunderground v.1.15,2013-05-14 16:56:00,
2013-05-14 10:01:00,53.9,45.8,30.19,West,259,3.0,3.0,74,0.00,,,0.00,587,Wunderground v.1.15,2013-05-14 17:01:00,
2013-05-14 10:06:00,53.9,45.8,30.20,South,171,5.0,5.0,74,0.00,,,0.00,608,Wunderground v.1.15,2013-05-14 17:06:00,
2013-05-14 10:11:00,54.1,44.9,30.20,SW,224,3.0,5.0,71,0.00,,,0.00,633,Wunderground v.1.15,2013-05-14 17:11:00,
2013-05-14 10:16:00,54.1,44.5,30.20,SW,224,2.0,5.0,70,0.00,,,0.00,696,Wunderground v.1.15,2013-05-14 17:16:00,
2013-05-14 10:21:00,54.3,44.7,30.20,SW,224,1.0,4.0,70,0.00,,,0.00,659,Wunderground v.1.15,2013-05-14 17:21:00,
2013-05-14 10:26:00,54.7,45.1,30.20,South,190,2.0,4.0,70,0.00,,,0.00,715,Wunderground v.1.15,2013-05-14 17:26:00,
2013-05-14 10:31:00,55.4,45.4,30.20,South,171,2.0,6.0,69,0.00,,,0.00,510,Wunderground v.1.15,2013-05-14 17:31:00,
2013-05-14 10:36:00,55.1,45.1,30.20,South,182,4.0,6.0,69,0.00,,,0.00,745,Wunderground v.1.15,2013-05-14 17:36:00,
2013-05-14 10:41:00,55.5,44.7,30.20,South,182,3.0,3.0,67,0.00,,,0.00,802,Wunderground v.1.15,2013-05-14 17:41:00,
2013-05-14 10:46:00,55.7,45.3,30.19,South,169,4.0,7.0,68,0.00,,,0.00,735,Wunderground v.1.15,2013-05-14 17:46:00,
2013-05-14 10:51:00,55.7,44.9,30.20,SSW,205,5.0,5.0,67,0.00,,,0.00,675,Wunderground v.1.15,2013-05-14 17:51:00,
2013-05-14 10:56:00,56.0,44.0,30.20,SSW,212,1.0,6.0,64,0.00,,,0.00,629,Wunderground v.1.15,2013-05-14 17:56:00,
2013-05-14 11:01:00,55.9,43.1,30.20,WSW,256,2.0,5.0,62,0.00,,,0.00,649,Wunderground v.1.15,2013-05-14 18:01:00,
2013-05-14 11:06:00,55.8,42.5,30.20,West,259,0.0,6.0,61,0.00,,,0.00,763,Wunderground v.1.15,2013-05-14 18:06:00,
2013-05-14 11:11:00,55.7,42.5,30.20,WNW,303,5.0,5.0,61,0.00,,,0.00,668,Wunderground v.1.15,2013-05-14 18:11:00,
2013-05-14 11:16:00,55.9,42.6,30.20,North,355,6.0,7.0,61,0.00,,,0.00,664,Wunderground v.1.15,2013-05-14 18:16:00,
2013-05-14 11:21:00,56.2,42.1,30.19,NW,312,5.0,6.0,59,0.00,,,0.00,788,Wunderground v.1.15,2013-05-14 18:21:00,
2013-05-14 11:26:00,56.5,42.3,30.19,NNW,336,6.0,8.0,59,0.00,,,0.00,802,Wunderground v.1.15,2013-05-14 18:26:00,
2013-05-14 11:31:00,56.6,43.7,30.19,NW,311,5.0,5.0,62,0.00,,,0.00,900,Wunderground v.1.15,2013-05-14 18:31:00,
2013-05-14 11:36:00,57.5,43.3,30.19,NNW,342,4.0,6.0,59,0.00,,,0.00,909,Wunderground v.1.15,2013-05-14 18:36:00,
2013-05-14 11:41:00,57.1,42.9,30.19,North,11,5.0,8.0,59,0.00,,,0.00,875,Wunderground v.1.15,2013-05-14 18:41:00,
2013-05-14 11:46:00,57.2,42.5,30.19,North,360,2.0,8.0,58,0.00,,,0.00,425,Wunderground v.1.15,2013-05-14 18:46:00,
2013-05-14 11:54:00,57.7,41.6,30.19,West,265,0.0,2.0,55,0.00,,,0.00,817,Wunderground v.1.15,2013-05-14 18:54:00,
2013-05-14 11:59:00,57.8,41.3,30.19,WNW,293,5.0,6.0,54,0.00,,,0.00,710,Wunderground v.1.15,2013-05-14 18:59:00,
2013-05-14 12:04:00,57.7,41.6,30.18,SSW,213,0.0,5.0,55,0.00,,,0.00,831,Wunderground v.1.15,2013-05-14 19:04:00,
2013-05-14 12:09:00,58.0,41.9,30.18,East,84,3.0,5.0,55,0.00,,,0.00,854,Wunderground v.1.15,2013-05-14 19:09:00,
2013-05-14 12:14:00,58.6,43.9,30.18,East,89,2.0,6.0,58,0.00,,,0.00,879,Wunderground v.1.15,2013-05-14 19:14:00,
2013-05-14 12:19:00,58.8,42.7,30.18,ESE,104,1.0,6.0,55,0.00,,,0.00,863,Wunderground v.1.15,2013-05-14 19:19:00,
2013-05-14 12:24:00,59.3,45.0,30.18,East,90,5.0,8.0,59,0.00,,,0.00,830,Wunderground v.1.15,2013-05-14 19:24:00,
2013-05-14 12:29:00,58.6,43.4,30.18,ESE,113,2.0,9.0,57,0.00,,,0.00,853,Wunderground v.1.15,2013-05-14 19:29:00,
2013-05-14 12:34:00,58.7,44.0,30.17,NNE,22,1.0,8.0,58,0.00,,,0.00,323,Wunderground v.1.15,2013-05-14 19:34:00,
2013-05-14 12:39:00,58.9,42.3,30.18,SSE,152,7.0,9.0,54,0.00,,,0.00,1002,Wunderground v.1.15,2013-05-14 19:39:00,
2013-05-14 12:44:00,58.9,44.1,30.17,East,90,5.0,7.0,58,0.00,,,0.00,954,Wunderground v.1.15,2013-05-14 19:44:00,
2013-05-14 12:49:00,59.1,42.0,30.17,NNW,327,0.0,7.0,53,0.00,,,0.00,243,Wunderground v.1.15,2013-05-14 19:49:00,
2013-05-14 12:54:00,59.8,41.6,30.17,West,266,5.0,8.0,51,0.00,,,0.00,907,Wunderground v.1.15,2013-05-14 19:54:00,
2013-05-14 12:59:00,59.6,40.9,30.17,WSW,243,1.0,8.0,50,0.00,,,0.00,858,Wunderground v.1.15,2013-05-14 19:59:00,
2013-05-14 13:04:00,59.6,40.4,30.17,WSW,242,3.0,9.0,49,0.00,,,0.00,882,Wunderground v.1.15,2013-05-14 20:04:00,
2013-05-14 13:09:00,60.2,41.0,30.17,WSW,257,7.0,9.0,49,0.00,,,0.00,1030,Wunderground v.1.15,2013-05-14 20:09:00,
2013-05-14 13:14:00,60.9,43.1,30.17,SSW,202,4.0,7.0,52,0.00,,,0.00,962,Wunderground v.1.15,2013-05-14 20:14:00,
2013-05-14 13:19:00,61.3,40.9,30.17,West,268,1.0,7.0,47,0.00,,,0.00,972,Wunderground v.1.15,2013-05-14 20:19:00,
2013-05-14 13:24:00,61.5,41.1,30.16,West,266,4.0,7.0,47,0.00,,,0.00,963,Wunderground v.1.15,2013-05-14 20:24:00,
2013-05-14 13:29:00,61.4,41.5,30.16,West,269,5.0,7.0,48,0.00,,,0.00,984,Wunderground v.1.15,2013-05-14 20:29:00,
2013-05-14 13:34:00,61.3,41.4,30.16,WNW,302,2.0,5.0,48,0.00,,,0.00,944,Wunderground v.1.15,2013-05-14 20:34:00,
2013-05-14 13:39:00,61.6,42.2,30.16,NNE,17,3.0,8.0,49,0.00,,,0.00,944,Wunderground v.1.15,2013-05-14 20:39:00,
2013-05-14 13:44:00,61.2,41.3,30.16,North,355,5.0,9.0,48,0.00,,,0.00,997,Wunderground v.1.15,2013-05-14 20:44:00,
2013-05-14 13:49:00,61.5,41.6,30.16,North,355,2.0,9.0,48,0.00,,,0.00,1009,Wunderground v.1.15,2013-05-14 20:49:00,
2013-05-14 13:54:00,61.4,41.0,30.16,NNE,17,5.0,9.0,47,0.00,,,0.00,946,Wunderground v.1.15,2013-05-14 20:54:00,
2013-05-14 13:59:00,61.2,41.9,30.16,East,92,2.0,9.0,49,0.00,,,0.00,793,Wunderground v.1.15,2013-05-14 20:59:00,
2013-05-14 14:04:00,60.9,43.1,30.15,East,100,1.0,4.0,52,0.00,,,0.00,803,Wunderground v.1.15,2013-05-14 21:04:00,
2013-05-14 14:09:00,61.1,42.8,30.15,East,100,0.0,4.0,51,0.00,,,0.00,522,Wunderground v.1.15,2013-05-14 21:09:00,
2013-05-14 14:14:00,61.5,40.5,30.15,NNW,344,1.0,8.0,46,0.00,,,0.00,1020,Wunderground v.1.15,2013-05-14 21:14:00,
2013-05-14 14:19:00,62.5,40.9,30.15,North,355,8.0,9.0,45,0.00,,,0.00,949,Wunderground v.1.15,2013-05-14 21:19:00,
2013-05-14 14:24:00,62.0,39.8,30.15,NNW,327,2.0,8.0,44,0.00,,,0.00,1007,Wunderground v.1.15,2013-05-14 21:24:00,
2013-05-14 14:29:00,62.0,40.4,30.15,North,9,2.0,8.0,45,0.00,,,0.00,986,Wunderground v.1.15,2013-05-14 21:29:00,
2013-05-14 14:34:00,63.0,41.3,30.14,NNE,13,9.0,11.0,45,0.00,,,0.00,274,Wunderground v.1.15,2013-05-14 21:34:00,
2013-05-14 14:39:00,61.9,40.9,30.14,NE,34,7.0,11.0,46,0.00,,,0.00,294,Wunderground v.1.15,2013-05-14 21:39:00,
2013-05-14 14:44:00,62.0,42.1,30.14,NNE,19,6.0,9.0,48,0.00,,,0.00,879,Wunderground v.1.15,2013-05-14 21:44:00,
2013-05-14 14:49:00,62.6,42.6,30.14,ENE,65,7.0,10.0,48,0.00,,,0.00,788,Wunderground v.1.15,2013-05-14 21:49:00,
2013-05-14 14:54:00,62.8,43.9,30.14,ENE,59,4.0,6.0,50,0.00,,,0.00,895,Wunderground v.1.15,2013-05-14 21:54:00,
2013-05-14 14:59:00,63.3,41.0,30.14,North,355,0.0,6.0,44,0.00,,,0.00,912,Wunderground v.1.15,2013-05-14 21:59:00,
2013-05-14 15:04:00,63.4,41.7,30.14,ENE,77,4.0,5.0,45,0.00,,,0.00,930,Wunderground v.1.15,2013-05-14 22:04:00,
2013-05-14 15:09:00,63.6,42.4,30.14,NE,36,6.0,7.0,46,0.00,,,0.00,1030,Wunderground v.1.15,2013-05-14 22:09:00,
2013-05-14 15:14:00,63.2,42.1,30.14,NW,304,8.0,8.0,46,0.00,,,0.00,1035,Wunderground v.1.15,2013-05-14 22:14:00,
2013-05-14 15:19:00,63.8,44.3,30.13,NNW,342,0.0,8.0,49,0.00,,,0.00,986,Wunderground v.1.15,2013-05-14 22:19:00,
2013-05-14 15:24:00,64.3,45.8,30.13,ENE,66,3.0,5.0,51,0.00,,,0.00,916,Wunderground v.1.15,2013-05-14 22:24:00,
2013-05-14 15:29:00,64.2,41.8,30.13,NE,36,4.0,7.0,44,0.00,,,0.00,895,Wunderground v.1.15,2013-05-14 22:29:00,
2013-05-14 15:34:00,63.9,43.3,30.13,ESE,113,6.0,7.0,47,0.00,,,0.00,893,Wunderground v.1.15,2013-05-14 22:34:00,
2013-05-14 15:39:00,63.8,43.7,30.12,East,94,5.0,7.0,48,0.00,,,0.00,889,Wunderground v.1.15,2013-05-14 22:39:00,
2013-05-14 15:44:00,63.5,42.9,30.12,East,81,3.0,7.0,47,0.00,,,0.00,884,Wunderground v.1.15,2013-05-14 22:44:00,
2013-05-14 15:49:00,63.8,43.7,30.12,ENE,74,4.0,12.0,48,0.00,,,0.00,860,Wunderground v.1.15,2013-05-14 22:49:00,
2013-05-14 15:54:00,63.1,42.5,30.12,East,79,7.0,10.0,47,0.00,,,0.00,197,Wunderground v.1.15,2013-05-14 22:54:00,
2013-05-14 15:59:00,61.8,43.0,30.12,ESE,102,7.0,10.0,50,0.00,,,0.00,153,Wunderground v.1.15,2013-05-14 22:59:00,
2013-05-14 16:04:00,61.2,42.9,30.12,East,92,5.0,7.0,51,0.00,,,0.00,188,Wunderground v.1.15,2013-05-14 23:04:00,
2013-05-14 16:09:00,61.1,42.3,30.12,ENE,78,2.0,7.0,50,0.00,,,0.00,199,Wunderground v.1.15,2013-05-14 23:09:00,
2013-05-14 16:14:00,61.4,42.1,30.12,ENE,74,1.0,4.0,49,0.00,,,0.00,288,Wunderground v.1.15,2013-05-14 23:14:00,
2013-05-14 16:19:00,62.0,44.7,30.12,ENE,76,3.0,4.0,53,0.00,,,0.00,308,Wunderground v.1.15,2013-05-14 23:19:00,
2013-05-14 16:24:00,62.5,42.0,30.12,ENE,76,1.0,3.0,47,0.00,,,0.00,258,Wunderground v.1.15,2013-05-14 23:24:00,
2013-05-14 16:29:00,63.0,41.3,30.12,NW,326,5.0,7.0,45,0.00,,,0.00,204,Wunderground v.1.15,2013-05-14 23:29:00,
2013-05-14 16:34:00,62.9,41.8,30.11,NW,313,4.0,7.0,46,0.00,,,0.00,202,Wunderground v.1.15,2013-05-14 23:34:00,
2013-05-14 16:39:00,63.1,41.4,30.12,North,350,0.0,7.0,45,0.00,,,0.00,200,Wunderground v.1.15,2013-05-14 23:39:00,
2013-05-14 16:44:00,62.7,42.2,30.11,WNW,291,0.0,4.0,47,0.00,,,0.00,207,Wunderground v.1.15,2013-05-14 23:44:00,
2013-05-14 16:49:00,62.4,42.4,30.11,West,259,0.0,4.0,48,0.00,,,0.00,211,Wunderground v.1.15,2013-05-14 23:49:00,
2013-05-14 16:54:00,62.2,43.8,30.11,SW,225,1.0,3.0,51,0.00,,,0.00,200,Wunderground v.1.15,2013-05-14 23:54:00,
2013-05-14 16:59:00,61.9,41.4,30.11,SSE,151,1.0,4.0,47,0.00,,,0.00,202,Wunderground v.1.15,2013-05-14 23:59:00,
2013-05-14 17:04:00,62.0,43.1,30.11,SSE,151,1.0,2.0,50,0.00,,,0.00,271,Wunderground v.1.15,2013-05-15 00:04:00,
2013-05-14 17:09:00,62.9,42.4,30.11,SE,134,1.0,4.0,47,0.00,,,0.00,629,Wunderground v.1.15,2013-05-15 00:09:00,
2013-05-14 17:14:00,63.9,42.7,30.11,South,173,0.0,4.0,46,0.00,,,0.00,548,Wunderground v.1.15,2013-05-15 00:14:00,
2013-05-14 17:19:00,64.3,42.5,30.11,SSW,204,2.0,6.0,45,0.00,,,0.00,401,Wunderground v.1.15,2013-05-15 00:19:00,
2013-05-14 17:24:00,64.0,42.2,30.11,South,185,2.0,5.0,45,0.00,,,0.00,155,Wunderground v.1.15,2013-05-15 00:24:00,
2013-05-14 17:29:00,63.7,41.9,30.11,WSW,254,4.0,7.0,45,0.00,,,0.00,160,Wunderground v.1.15,2013-05-15 00:29:00,
2013-05-14 17:34:00,63.7,41.9,30.11,West,260,2.0,4.0,45,0.00,,,0.00,190,Wunderground v.1.15,2013-05-15 00:34:00,
2013-05-14 17:39:00,63.5,42.9,30.11,West,261,5.0,8.0,47,0.00,,,0.00,199,Wunderground v.1.15,2013-05-15 00:39:00,
2013-05-14 17:44:00,63.6,42.4,30.11,WSW,252,2.0,5.0,46,0.00,,,0.00,302,Wunderground v.1.15,2013-05-15 00:44:00,
2013-05-14 17:49:00,64.1,42.3,30.11,NW,320,6.0,9.0,45,0.00,,,0.00,436,Wunderground v.1.15,2013-05-15 00:49:00,
2013-05-14 17:54:00,64.4,41.4,30.11,NW,313,4.0,6.0,43,0.00,,,0.00,229,Wunderground v.1.15,2013-05-15 00:54:00,
2013-05-14 17:59:00,64.3,41.9,30.11,WNW,294,4.0,8.0,44,0.00,,,0.00,534,Wunderground v.1.15,2013-05-15 00:59:00,
2013-05-14 18:05:00,64.7,42.9,30.11,WNW,298,7.0,9.0,45,0.00,,,0.00,503,Wunderground v.1.15,2013-05-15 01:05:00,
2013-05-14 18:09:00,64.7,41.7,30.10,WNW,300,4.0,9.0,43,0.00,,,0.00,251,Wunderground v.1.15,2013-05-15 01:09:00,
2013-05-14 18:14:00,64.6,42.2,30.10,WNW,284,6.0,6.0,44,0.00,,,0.00,343,Wunderground v.1.15,2013-05-15 01:14:00,
2013-05-14 18:20:00,64.4,42.6,30.10,WNW,283,8.0,12.0,45,0.00,,,0.00,309,Wunderground v.1.15,2013-05-15 01:20:00,
2013-05-14 18:24:00,64.3,43.1,30.10,West,273,6.0,11.0,46,0.00,,,0.00,348,Wunderground v.1.15,2013-05-15 01:24:00,
2013-05-14 18:29:00,64.1,42.3,30.10,WNW,282,6.0,11.0,45,0.00,,,0.00,322,Wunderground v.1.15,2013-05-15 01:29:00,
2013-05-14 18:34:00,64.1,42.3,30.10,West,277,7.0,9.0,45,0.00,,,0.00,320,Wunderground v.1.15,2013-05-15 01:34:00,
2013-05-14 18:39:00,64.1,42.3,30.10,West,279,7.0,9.0,45,0.00,,,0.00,297,Wunderground v.1.15,2013-05-15 01:39:00,
2013-05-14 18:44:00,64.0,42.2,30.10,NW,326,7.0,9.0,45,0.00,,,0.00,274,Wunderground v.1.15,2013-05-15 01:44:00,
2013-05-14 18:49:00,63.8,42.6,30.10,WNW,288,7.0,9.0,46,0.00,,,0.00,253,Wunderground v.1.15,2013-05-15 01:49:00,
2013-05-14 18:54:00,63.7,41.9,30.10,NW,321,8.0,9.0,45,0.00,,,0.00,232,Wunderground v.1.15,2013-05-15 01:54:00,
2013-05-14 18:59:00,63.9,42.7,30.10,NW,325,5.0,9.0,46,0.00,,,0.00,223,Wunderground v.1.15,2013-05-15 01:59:00,
2013-05-14 19:04:00,64.2,43.5,30.09,NW,309,4.0,8.0,47,0.00,,,0.00,206,Wunderground v.1.15,2013-05-15 02:04:00,
2013-05-14 19:09:00,64.0,43.4,30.10,West,273,8.0,11.0,47,0.00,,,0.00,192,Wunderground v.1.15,2013-05-15 02:09:00,
2013-05-14 19:14:00,63.6,42.4,30.09,WNW,287,5.0,9.0,46,0.00,,,0.00,178,Wunderground v.1.15,2013-05-15 02:14:00,
2013-05-14 19:19:00,63.3,42.7,30.09,NW,316,7.0,11.0,47,0.00,,,0.00,167,Wunderground v.1.15,2013-05-15 02:19:00,
2013-05-14 19:25:00,62.6,42.6,30.09,NW,316,6.0,9.0,48,0.00,,,0.00,72,Wunderground v.1.15,2013-05-15 02:25:00,
2013-05-14 19:30:00,62.2,43.3,30.09,NW,313,4.0,6.0,50,0.00,,,0.00,109,Wunderground v.1.15,2013-05-15 02:30:00,
2013-05-14 19:35:00,62.0,43.1,30.10,NW,308,4.0,7.0,50,0.00,,,0.00,104,Wunderground v.1.15,2013-05-15 02:35:00,
2013-05-14 19:40:00,61.8,43.5,30.09,NW,317,2.0,4.0,51,0.00,,,0.00,70,Wunderground v.1.15,2013-05-15 02:40:00,
2013-05-14 19:45:00,61.6,43.8,30.09,NW,309,1.0,7.0,52,0.00,,,0.00,63,Wunderground v.1.15,2013-05-15 02:45:00,
2013-05-14 19:50:00,61.3,44.0,30.09,NW,325,1.0,4.0,53,0.00,,,0.00,77,Wunderground v.1.15,2013-05-15 02:50:00,
2013-05-14 19:55:00,61.3,44.0,30.09,NW,316,4.0,5.0,53,0.00,,,0.00,70,Wunderground v.1.15,2013-05-15 02:55:00,
2013-05-14 20:00:00,61.2,43.9,30.09,NW,317,5.0,5.0,53,0.00,,,0.00,56,Wunderground v.1.15,2013-05-15 03:00:00,
2013-05-14 20:05:00,61.0,43.7,30.10,NW,315,1.0,6.0,53,0.00,,,0.00,49,Wunderground v.1.15,2013-05-15 03:05:00,
2013-05-14 20:10:00,60.6,43.9,30.10,NW,313,4.0,4.0,54,0.00,,,0.00,26,Wunderground v.1.15,2013-05-15 03:10:00,
2013-05-14 20:15:00,60.2,44.0,30.10,NW,308,2.0,6.0,55,0.00,,,0.00,19,Wunderground v.1.15,2013-05-15 03:15:00,
2013-05-14 20:20:00,59.9,44.2,30.10,NW,308,4.0,4.0,56,0.00,,,0.00,9,Wunderground v.1.15,2013-05-15 03:20:00,
2013-05-14 20:25:00,59.5,44.2,30.09,NW,308,4.0,5.0,57,0.00,,,0.00,5,Wunderground v.1.15,2013-05-15 03:25:00,
2013-05-14 20:30:00,59.3,44.5,30.10,NW,308,4.0,4.0,58,0.00,,,0.00,0,Wunderground v.1.15,2013-05-15 03:30:00,
2013-05-14 20:35:00,58.9,44.6,30.10,NW,308,4.0,5.0,59,0.00,,,0.00,0,Wunderground v.1.15,2013-05-15 03:35:00,
2013-05-14 20:40:00,58.7,44.8,30.10,NW,319,5.0,5.0,60,0.00,,,0.00,0,Wunderground v.1.15,2013-05-15 03:40:00,
2013-05-14 20:45:00,58.5,44.7,30.10,NW,310,2.0,6.0,60,0.00,,,0.00,0,Wunderground v.1.15,2013-05-15 03:45:00,
2013-05-14 20:50:00,58.5,44.7,30.10,NW,310,2.0,3.0,60,0.00,,,0.00,0,Wunderground v.1.15,2013-05-15 03:50:00,
2013-05-14 20:55:00,58.2,44.8,30.10,NW,317,5.0,5.0,61,0.00,,,0.00,0,Wunderground v.1.15,2013-05-15 03:55:00,
2013-05-14 21:00:00,57.9,45.0,30.10,NW,318,5.0,5.0,62,0.00,,,0.00,0,Wunderground v.1.15,2013-05-15 04:00:00,
2013-05-14 21:01:00,57.9,45.0,30.10,NW,316,5.0,6.0,62,0.00,,,0.00,0,Wunderground v.1.15,2013-05-15 04:01:00,
2013-05-14 21:06:00,57.4,44.9,30.10,NNW,347,2.0,6.0,63,0.00,,,0.00,0,Wunderground v.1.15,2013-05-15 04:06:00,
2013-05-14 21:11:00,56.8,45.2,30.10,North,349,5.0,7.0,65,0.00,,,0.00,0,Wunderground v.1.15,2013-05-15 04:11:00,
2013-05-14 21:16:00,56.7,45.1,30.11,NW,321,4.0,7.0,65,0.00,,,0.00,0,Wunderground v.1.15,2013-05-15 04:16:00,
2013-05-14 21:21:00,56.7,45.1,30.11,NW,317,5.0,7.0,65,0.00,,,0.00,0,Wunderground v.1.15,2013-05-15 04:21:00,
2013-05-14 21:26:00,56.6,45.4,30.11,NW,325,4.0,7.0,66,0.00,,,0.00,0,Wunderground v.1.15,2013-05-15 04:26:00,
2013-05-14 21:31:00,56.2,45.0,30.11,NNW,341,4.0,6.0,66,0.00,,,0.00,0,Wunderground v.1.15,2013-05-15 04:31:00,
2013-05-14 21:36:00,55.9,45.1,30.11,NNW,330,2.0,6.0,67,0.00,,,0.00,0,Wunderground v.1.15,2013-05-15 04:36:00,
2013-05-14 21:41:00,55.6,44.8,30.11,NNW,336,2.0,5.0,67,0.00,,,0.00,0,Wunderground v.1.15,2013-05-15 04:41:00,
2013-05-14 21:46:00,55.5,44.7,30.11,NW,326,4.0,6.0,67,0.00,,,0.00,0,Wunderground v.1.15,2013-05-15 04:46:00,
2013-05-14 21:51:00,55.4,44.6,30.11,NW,326,1.0,4.0,67,0.00,,,0.00,0,Wunderground v.1.15,2013-05-15 04:51:00,
2013-05-14 21:56:00,54.9,44.5,30.11,NW,326,0.0,4.0,68,0.00,,,0.00,0,Wunderground v.1.15,2013-05-15 04:56:00,
2013-05-14 22:01:00,53.9,44.3,30.11,NW,323,2.0,2.0,70,0.00,,,0.00,0,Wunderground v.1.15,2013-05-15 05:01:00,
2013-05-14 22:06:00,53.3,44.9,30.11,SSW,213,1.0,4.0,73,0.00,,,0.00,0,Wunderground v.1.15,2013-05-15 05:06:00,
2013-05-14 22:11:00,52.8,44.7,30.12,SSW,213,0.0,2.0,74,0.00,,,0.00,0,Wunderground v.1.15,2013-05-15 05:11:00,
2013-05-14 22:16:00,53.0,44.6,30.11,SSW,213,1.0,3.0,73,0.00,,,0.00,0,Wunderground v.1.15,2013-05-15 05:16:00,
2013-05-14 22:21:00,53.5,44.3,30.11,SSW,213,1.0,1.0,71,0.00,,,0.00,0,Wunderground v.1.15,2013-05-15 05:21:00,
2013-05-14 22:26:00,54.0,44.4,30.11,SSW,213,0.0,1.0,70,0.00,,,0.00,0,Wunderground v.1.15,2013-05-15 05:26:00,
2013-05-14 22:31:00,54.2,44.6,30.11,SSW,213,0.0,1.0,70,0.00,,,0.00,0,Wunderground v.1.15,2013-05-15 05:31:00,
2013-05-14 22:36:00,53.7,44.5,30.11,SSW,213,0.0,1.0,71,0.00,,,0.00,0,Wunderground v.1.15,2013-05-15 05:36:00,
2013-05-14 22:41:00,53.0,44.9,30.12,SSW,213,0.0,1.0,74,0.00,,,0.00,0,Wunderground v.1.15,2013-05-15 05:41:00,
2013-05-14 22:46:00,52.3,44.6,30.12,SSW,213,0.0,1.0,75,0.00,,,0.00,0,Wunderground v.1.15,2013-05-15 05:46:00,
2013-05-14 22:51:00,52.0,44.7,30.12,SSW,213,0.0,0.0,76,0.00,,,0.00,0,Wunderground v.1.15,2013-05-15 05:51:00,
2013-05-14 22:56:00,51.8,44.8,30.12,SSW,213,0.0,0.0,77,0.00,,,0.00,0,Wunderground v.1.15,2013-05-15 05:56:00,
2013-05-14 23:01:00,51.7,44.7,30.12,SSW,213,0.0,0.0,77,0.00,,,0.00,0,Wunderground v.1.15,2013-05-15 06:01:00,
2013-05-14 23:06:00,51.5,44.5,30.12,SSW,213,0.0,1.0,77,0.00,,,0.00,0,Wunderground v.1.15,2013-05-15 06:06:00,
2013-05-14 23:11:00,51.1,44.5,30.12,SSW,213,2.0,2.0,78,0.00,,,0.00,0,Wunderground v.1.15,2013-05-15 06:11:00,
2013-05-14 23:16:00,50.8,44.5,30.12,SSW,213,0.0,2.0,79,0.00,,,0.00,0,Wunderground v.1.15,2013-05-15 06:16:00,
2013-05-14 23:21:00,50.5,44.2,30.11,SSW,213,0.0,0.0,79,0.00,,,0.00,0,Wunderground v.1.15,2013-05-15 06:21:00,
2013-05-14 23:26:00,50.3,44.0,30.12,SSW,213,0.0,0.0,79,0.00,,,0.00,0,Wunderground v.1.15,2013-05-15 06:26:00,
2013-05-14 23:31:00,50.1,44.2,30.12,SSW,213,0.0,0.0,80,0.00,,,0.00,0,Wunderground v.1.15,2013-05-15 06:31:00,
2013-05-14 23:36:00,50.2,43.6,30.12,SW,228,0.0,3.0,78,0.00,,,0.00,0,Wunderground v.1.15,2013-05-15 06:36:00,
2013-05-14 23:41:00,49.4,43.5,30.12,SW,228,0.0,0.0,80,0.00,,,0.00,0,Wunderground v.1.15,2013-05-15 06:41:00,
2013-05-14 23:46:00,48.6,43.0,30.12,SW,228,0.0,2.0,81,0.00,,,0.00,0,Wunderground v.1.15,2013-05-15 06:46:00,
2013-05-14 23:54:00,48.7,43.1,30.11,SW,228,0.0,0.0,81,0.00,,,0.00,0,Wunderground v.1.15,2013-05-15 06:54:00,
2013-05-14 23:59:00,48.5,43.3,30.11,SW,228,0.0,1.0,82,0.00,,,0.00,0,Wunderground v.1.15,2013-05-15 06:59:00,